Weather in Seattle

United States     47°36′28″N   122°19′42″W
temp.,
°C
wind,
m/s
gust,
m/s
humid.,
%
clouds,
%
prec.,
mm/h
press.,
hPa
HPBL,
m
12 may, wed
wed1223:00+12nne2465100 0.0 1021114
02:00+12ne1271100 0.0 1020101
05:00+11nne1273100 0.0 102075
08:00+13ne2468100 0.0 1021240
11:00+15nne356288 0.0 1021658
14:00+19n44466 0.0 10201343
17:00+19n4549100 0.0 10191093
20:00+14n396884 0.0 1020420
13 may, thu
thu1323:00+12nne367896 0.0 1021313
02:00+10nne248899 0.0 1021182
05:00+9nne1394100 0.0 1022123
08:00+12nne2380100 0.0 1022332
11:00+17nnw3355100 0.0 1021919
14:00+20nnw3444100 0.0 10201130
17:00+20nnw453880 0.0 10191086
20:00+16n255648 0.0 1019225
14 may, fri
fri1423:00+12ne23760 0.0 101980
02:00+10ne11840 0.0 101917
05:00+9ese00880 0.0 102011
08:00+13sse00700 0.0 1020297
11:00+19nnw12470 0.0 10191036
14:00+22n34320 0.0 10181480
17:00+22nnw46320 0.0 10171169
20:00+18n36505 0.0 1016283
15 may, sat
sat1523:00+13n23725 0.0 101887
02:00+11ene11800 0.0 101817
05:00+9sse11865 0.0 101918
08:00+13w01695 0.0 1019333
11:00+20nnw12455 0.0 1018921
14:00+24n33335 0.0 10161467
17:00+24n33315 0.0 10141254
20:00+19n25465 0.0 1014216
16 may, sun
sun1623:00+14nne236721 0.0 1015111
02:00+12se0075100 0.0 101515
05:00+11sse2380100 0.0 101589
08:00+13s126924 0.0 1015296
11:00+20sw21446 0.0 1014896
14:00+25sw22345 0.0 10121558
17:00+26w223340 0.0 10112001
20:00+19nnw24556 0.0 1012280